Preview of NWS' New Version of Forecast
This preview is not operational and should not be used for support decisions.

Regional Weather Roundup (RWR)

Issued by National Weather Service (NWS)

                            
000
ASUS46 KPQR 161610
RWROR 

OREGON REGIONAL WEATHER ROUNDUP
NATIONAL WEATHER SERVICE PORTLAND OR
800 AM PST SAT FEB 16 2019

NOTE: "FAIR" INDICATES FEW OR NO CLOUDS BELOW 12,000 FEET WITH
NO SIGNIFICANT WEATHER AND/OR OBSTRUCTIONS TO VISIBILITY.

ORZ001>013-161700-
NORTHWEST OREGON

  
CITY           SKY/WX    TMP DP  RH WIND       PRES   REMARKS
ASTORIA        CLOUDY    39  39 100 CALM      29.83R                  
TILLAMOOK      RAIN      41  37  87 SE3       29.86R                  
NEWPORT        CLOUDY    45  37  76 NW18      29.93R                  
PORTLAND       CLOUDY    38  38 100 E7        29.85R                  
VANCOUVER WA   CLOUDY    39  37  92 E3        29.84R                  
SCAPPOOSE      CLOUDY    41  37  86 CALM      29.84R                  
HILLSBORO      MOCLDY    37  36  96 CALM      29.84R                  
AURORA         CLOUDY    39  39 100 SW3       29.86R                  
MCMINNVILLE    LGT RAIN  38  36  92 SW13      29.84R WCI  30          
SALEM          LGT RAIN  40  38  93 S3        29.85R FOG              
CORVALLIS      MOCLDY    37  36  93 S7        29.90R                  
EUGENE         LGT RAIN  38  34  85 SW14      29.92R WCI  30          
$$

ORZ021-028-161700-
SOUTHWEST OREGON

  
CITY           SKY/WX    TMP DP  RH WIND       PRES   REMARKS
NORTH BEND     MOCLDY    45  36  70 NW13      30.00R                  
BROOKINGS      LGT RAIN  39  37  92 CALM      30.04R                  
ROSEBURG       MOCLDY    38  35  89 S7        29.98R                  
SEXTON SUMMIT  SNOW      27  27 100 VRB5      29.86R VSB 1/4          
GRANTS PASS    SNOW      32  32 100 CALM      30.01  VSB 1/2          
MEDFORD        CLOUDY    36  33  89 S5        29.96R                  
$$

ORZ014>016-041-161700-
COLUMBIA GORGE

  
CITY           SKY/WX    TMP DP  RH WIND       PRES   REMARKS
TROUTDALE      CLOUDY    37  35  92 E3        29.85R                  
HOOD RIVER     LGT SNOW  32  30  93 CALM      29.83R                  
THE DALLES     SNOW      30  28  92 E3        29.85R VSB 1/4          
$$

ORZ029>031-041-044-049-050-061>064-502-503-505>511-161700-
EASTERN OREGON

  
CITY           SKY/WX    TMP DP  RH WIND       PRES   REMARKS
MADRAS         NOT AVBL                                               
REDMOND        CLOUDY    32  25  75 S5        29.74R                  
BEND           CLOUDY    32  25  74 SW13      29.74R WCI  22          
PRINEVILLE     CLOUDY    34  23  64 W6        29.74                   
KLAMATH FALLS  SNOW      29  28  96 SW8       29.83R VSB 1/2          
LAKEVIEW       CLOUDY    25  23  92 S9        29.80R                  
HERMISTON      CLOUDY    30  27  88 SW5       29.82R FOG              
PENDLETON      FOG       28  27  96 NW7       29.75R VSB<1/4          
JOHN DAY       LGT SNOW  31  29  93 SE6       29.73                   
MEACHAM        CLOUDY    27  24  89 CALM      29.69R                  
LA GRANDE      FLURRIES  32  27  81 S6        29.76R                  
BAKER CITY     CLOUDY    30  26  85 S3        29.73R                  
BURNS          PTSUNNY   28  21  75 SW6       29.75R                  
ROME             N/A     33  20  58 S16G24    29.76R WCI  23          
ONTARIO        CLOUDY    34  30  85 VRB6      29.83R                  
$$